Three Rivers, MI

1:49 PM EST on November 23, 2017 (GMT -0500)
Three Rivers Municipal-Haines

Weather History for KHAI - December, 2006

Change the Weather History Date:

Friday, December 8, 2006

  Actual Average Record
Temperature  
Mean Temperature 14 °F -  
Max Temperature 21 °F 38 °F 64 °F (1966)
Min Temperature 8 °F 25 °F 1 °F (1977)
Degree Days  
Heating Degree Days 50    
Moisture  
Dew Point 10 °F    
Average Humidity 76    
Maximum Humidity 93    
Minimum Humidity 46    
Precipitation  
Precipitation 0.00 in - - ()
Sea Level Pressure  
Sea Level Pressure 30.47 in    
Wind  
Wind Speed 7 mph (SSW)    
Max Wind Speed 14 mph    
Max Gust Speed 17 mph    
Visibility 8 miles    
Events Snow    
Averages and records for this station are not official NWS values.
T = Trace of Precipitation, MM = Missing Value Source: NWS Daily Summary

Daily Weather History Graph

Daily Weather History Graph

Search for Another Location

Airport or City:

Trip Planner

Search our weather history database for the weather conditions in past years. The results will help you decide how hot, cold, wet, or windy it might be!

Date:

Astronomy

Dec. 08, 2006 Rise Set
Actual Time 7:57 AM EST 5:10 PM EST
Civil Twilight 7:26 AM EST 5:42 PM EST
Nautical Twilight 6:51 AM EST 6:17 PM EST
Astronomical Twilight 6:17 AM EST 6:51 PM EST
Moon 8:51 PM EST (12/8) 11:26 AM EST (12/8)
Length of Visible Light 10h 16m
Length of Day
9h 13m
Waning Gibbous, 85% of the Moon is Illuminated
Dec 8
Waning Gibbous
Dec 12
Last Quarter
Dec 20
New
Dec 27
First Quarter
Jan 3
Full

Hourly Weather History & Observations

Time (EST) Temp. Windchill Dew Point Humidity Pressure Visibility Wind Dir Wind Speed Gust Speed Precip Events Conditions
12:16 AM 19.4 °F 10.4 °F 15.8 °F 86% 30.49 in 2.5 mi West 6.9 mph - N/A Snow Light Snow
12:36 AM 19.4 °F 10.4 °F 15.8 °F 86% 30.49 in 4.0 mi West 6.9 mph - N/A Snow Light Snow
12:56 AM 19.4 °F 12.8 °F 15.8 °F 86% 30.49 in 3.0 mi WSW 4.6 mph - N/A Snow Light Snow
1:16 AM 19.4 °F 14.3 °F 15.8 °F 86% 30.49 in 3.0 mi SW 3.5 mph - N/A Snow Light Snow
1:36 AM 17.6 °F 9.3 °F 15.8 °F 93% 30.49 in 4.0 mi South 5.8 mph - N/A Snow Light Snow
1:56 AM 15.8 °F 6.1 °F 14.0 °F 93% 30.49 in 5.0 mi South 6.9 mph - N/A Snow Light Snow
2:16 AM 15.8 °F 6.1 °F 12.2 °F 86% 30.50 in 3.0 mi South 6.9 mph - N/A Snow Light Snow
2:37 AM 15.8 °F 7.2 °F 12.2 °F 86% 30.50 in 2.5 mi SSW 5.8 mph - N/A Snow Light Snow
2:56 AM 15.8 °F 8.6 °F 14.0 °F 93% 30.50 in 3.0 mi SSW 4.6 mph - N/A Snow Light Snow
3:16 AM 17.6 °F 8.2 °F 14.0 °F 86% 30.50 in 4.0 mi SSW 6.9 mph - N/A Snow Light Snow
3:36 AM 17.6 °F 10.7 °F 14.0 °F 86% 30.50 in 5.0 mi SSW 4.6 mph - N/A Snow Light Snow
3:56 AM 17.6 °F 10.7 °F 15.8 °F 93% 30.50 in 4.0 mi SSW 4.6 mph - N/A Snow Light Snow
4:16 AM 17.6 °F 9.3 °F 15.8 °F 93% 30.49 in 7.0 mi SSW 5.8 mph - N/A Snow Light Snow
4:36 AM 17.6 °F 10.7 °F 15.8 °F 93% 30.49 in 10.0 mi SSW 4.6 mph - N/A   Overcast
4:56 AM 17.6 °F 10.7 °F 15.8 °F 93% 30.49 in 7.0 mi SW 4.6 mph - N/A Snow Light Snow
5:16 AM 17.6 °F 10.7 °F 15.8 °F 93% 30.49 in 7.0 mi South 4.6 mph - N/A Snow Light Snow
5:36 AM 15.8 °F 10.2 °F 14.0 °F 93% 30.49 in 7.0 mi South 3.5 mph - N/A Snow Light Snow
5:56 AM 15.8 °F 7.2 °F 14.0 °F 93% 30.48 in 10.0 mi South 5.8 mph - N/A   Overcast
6:16 AM 15.8 °F 6.1 °F 12.2 °F 86% 30.49 in 10.0 mi South 6.9 mph - N/A   Overcast
6:36 AM 12.2 °F -0.2 °F 10.4 °F 92% 30.49 in 10.0 mi South 9.2 mph - N/A   Overcast
6:56 AM 12.2 °F 0.7 °F 10.4 °F 92% 30.49 in 10.0 mi South 8.1 mph - N/A   Overcast
7:16 AM 10.4 °F -2.4 °F 8.6 °F 92% 30.50 in 5.0 mi South 9.2 mph - N/A Snow Light Snow
7:36 AM 10.4 °F -1.5 °F 6.8 °F 85% 30.50 in 10.0 mi South 8.1 mph - N/A Snow Light Snow
7:56 AM 8.6 °F -3.7 °F 6.8 °F 92% 30.50 in 10.0 mi SSW 8.1 mph - N/A Snow Light Snow
8:16 AM 10.4 °F -0.4 °F 6.8 °F 85% 30.50 in 10.0 mi South 6.9 mph - N/A Snow Light Snow
8:36 AM 10.4 °F 2.2 °F 6.8 °F 85% 30.51 in 7.0 mi SSW 4.6 mph - N/A   Overcast
8:56 AM 10.4 °F -0.4 °F 6.8 °F 85% 30.50 in 10.0 mi SW 6.9 mph - N/A   Scattered Clouds
9:16 AM 12.2 °F 0.7 °F 8.6 °F 85% 30.51 in 10.0 mi SSW 8.1 mph - N/A Snow Light Snow
9:36 AM 12.2 °F 0.7 °F 8.6 °F 85% 30.52 in 10.0 mi SW 8.1 mph - N/A   Scattered Clouds
9:56 AM 14.0 °F 1.2 °F 8.6 °F 79% 30.52 in 10.0 mi SW 10.4 mph - N/A   Clear
10:19 AM 14.0 °F 3.9 °F 8.6 °F 79% 30.52 in 10.0 mi South 6.9 mph - N/A   Clear
10:36 AM 12.2 °F -0.2 °F 8.6 °F 85% 30.52 in 10.0 mi South 9.2 mph - N/A   Clear
10:56 AM 12.2 °F 0.7 °F 8.6 °F 85% 30.52 in 10.0 mi South 8.1 mph - N/A   Clear
11:16 AM 14.0 °F 0.5 °F 6.8 °F 73% 30.51 in 10.0 mi South 11.5 mph - N/A   Clear
11:36 AM 14.0 °F 2.0 °F 6.8 °F 73% 30.51 in 10.0 mi South 9.2 mph - N/A   Clear
11:56 AM 17.6 °F 9.3 °F 8.6 °F 68% 30.50 in 10.0 mi SSW 5.8 mph - N/A   Clear
12:16 PM 17.6 °F 5.0 °F 3.2 °F 53% 30.49 in 10.0 mi SW 11.5 mph 17.3 mph N/A   Clear
12:36 PM 17.6 °F 6.4 °F 5.0 °F 58% 30.48 in 10.0 mi SSW 9.2 mph - N/A   Clear
12:56 PM 17.6 °F 6.4 °F 6.8 °F 63% 30.47 in 10.0 mi South 9.2 mph - N/A   Clear
1:16 PM 17.6 °F 6.4 °F 6.8 °F 63% 30.46 in 10.0 mi South 9.2 mph - N/A   Clear
1:36 PM 17.6 °F 5.0 °F 6.8 °F 63% 30.46 in 10.0 mi South 11.5 mph - N/A   Clear
1:56 PM 17.6 °F 6.4 °F 6.8 °F 63% 30.46 in 10.0 mi SSW 9.2 mph - N/A   Clear
2:16 PM 19.4 °F 7.9 °F 3.2 °F 49% 30.45 in 10.0 mi SSW 10.4 mph 16.1 mph N/A   Clear
2:36 PM 21.2 °F 11.7 °F 3.2 °F 46% 30.44 in 10.0 mi WSW 8.1 mph - N/A   Clear
3:16 PM 21.2 °F 11.7 °F 3.2 °F 46% 30.40 in 10.0 mi SW 8.1 mph - N/A   Clear
3:36 PM 19.4 °F 8.6 °F 6.8 °F 58% 30.41 in 10.0 mi SSW 9.2 mph - N/A   Clear
3:56 PM 21.2 °F 10.1 °F 5.0 °F 50% 30.40 in 10.0 mi SW 10.4 mph - N/A   Clear
4:16 PM 21.2 °F 10.9 °F 6.8 °F 54% 30.39 in 10.0 mi SSW 9.2 mph - N/A   Clear
4:36 PM 19.4 °F 10.4 °F 6.8 °F 58% 30.40 in 10.0 mi SSW 6.9 mph - N/A   Clear
4:57 PM 19.4 °F 11.5 °F 8.6 °F 63% 30.40 in 10.0 mi SSW 5.8 mph - N/A   Mostly Cloudy
5:16 PM 21.2 °F 10.9 °F 8.6 °F 58% 30.39 in 10.0 mi South 9.2 mph - N/A   Overcast
5:36 PM 21.2 °F 10.9 °F 8.6 °F 58% 30.38 in 10.0 mi SSW 9.2 mph - N/A   Overcast
5:57 PM 19.4 °F 8.6 °F 10.4 °F 68% 30.37 in 10.0 mi SSW 9.2 mph - N/A   Mostly Cloudy
6:16 PM 21.2 °F 10.9 °F 10.4 °F 63% 30.37 in 10.0 mi SSW 9.2 mph - N/A   Overcast
6:37 PM 21.2 °F 10.1 °F 10.4 °F 63% 30.37 in 10.0 mi SSW 10.4 mph - N/A   Overcast
6:56 PM 21.2 °F 10.1 °F 10.4 °F 63% 30.37 in 10.0 mi SSW 10.4 mph - N/A   Overcast
7:17 PM 21.2 °F 8.3 °F 10.4 °F 63% 30.36 in 10.0 mi SSW 13.8 mph - N/A   Overcast
7:36 PM 21.2 °F 9.5 °F 12.2 °F 68% 30.36 in 10.0 mi SSW 11.5 mph - N/A   Overcast
7:56 PM 21.2 °F 10.1 °F 12.2 °F 68% 30.36 in 10.0 mi SSW 10.4 mph - N/A   Overcast
8:16 PM 21.2 °F 8.9 °F 12.2 °F 68% 30.36 in 10.0 mi SSW 12.7 mph 19.6 mph N/A   Overcast
8:37 PM 23.0 °F 9.6 °F 10.4 °F 59% 30.35 in 10.0 mi SSW 16.1 mph - N/A   Overcast
8:56 PM 23.0 °F 10.6 °F 12.2 °F 63% 30.33 in 10.0 mi SSW 13.8 mph 19.6 mph N/A   Overcast
9:16 PM 23.0 °F 11.7 °F 10.4 °F 59% 30.34 in 10.0 mi SW 11.5 mph 17.3 mph N/A   Overcast
9:36 PM 23.0 °F 12.4 °F 10.4 °F 59% 30.34 in 10.0 mi SW 10.4 mph - N/A   Overcast
9:57 PM 23.0 °F 10.1 °F 10.4 °F 59% 30.32 in 10.0 mi SSW 15.0 mph 20.7 mph N/A   Overcast
10:16 PM 23.0 °F 13.1 °F 10.4 °F 59% 30.32 in 10.0 mi SW 9.2 mph 20.7 mph N/A   Mostly Cloudy
10:36 PM 21.2 °F 10.1 °F 10.4 °F 63% 30.32 in 10.0 mi SSW 10.4 mph 17.3 mph N/A   Scattered Clouds
10:56 PM 21.2 °F 8.3 °F 10.4 °F 63% 30.31 in 10.0 mi SSW 13.8 mph 17.3 mph N/A   Scattered Clouds
11:16 PM 23.0 °F 11.7 °F 10.4 °F 59% 30.32 in 10.0 mi SW 11.5 mph 16.1 mph N/A   Mostly Cloudy
11:36 PM 23.0 °F 12.4 °F 10.4 °F 59% 30.32 in 10.0 mi SW 10.4 mph 18.4 mph N/A   Mostly Cloudy
11:56 PM 23.0 °F 11.1 °F 10.4 °F 59% 30.32 in 10.0 mi SW 12.7 mph 20.7 mph N/A   Overcast